TimeEST,TemperatureF,Dew PointF,Humidity,Sea Level PressureIn,VisibilityMPH,Wind Direction,Wind SpeedMPH,Gust SpeedMPH,PrecipitationIn,Events,Conditions,WindDirDegrees,DateUTC
12:54 AM,27.0,24.1,89,30.40,-9999.0,North,-9999.0,-,N/A,,Unknown,0,2012-12-13 05:54:00
1:54 AM,27.0,24.1,89,30.41,-9999.0,North,-9999.0,-,N/A,,Unknown,0,2012-12-13 06:54:00
2:54 AM,27.0,24.1,89,30.41,-9999.0,North,-9999.0,-,N/A,,Unknown,0,2012-12-13 07:54:00
3:54 AM,28.0,24.1,85,30.41,-9999.0,North,-9999.0,-,N/A,,Unknown,0,2012-12-13 08:54:00
4:54 AM,28.0,24.1,85,30.41,-9999.0,North,-9999.0,-,N/A,,Unknown,0,2012-12-13 09:54:00
5:54 AM,28.0,24.1,85,30.43,-9999.0,North,-9999.0,-,N/A,,Unknown,0,2012-12-13 10:54:00
6:54 AM,28.0,24.1,85,30.44,-9999.0,North,-9999.0,-,N/A,,Unknown,0,2012-12-13 11:54:00
7:54 AM,28.0,24.1,85,30.46,-9999.0,North,-9999.0,-,N/A,,Unknown,0,2012-12-13 12:54:00
8:54 AM,28.0,25.0,88,30.45,-9999.0,North,-9999.0,-,N/A,,Unknown,0,2012-12-13 13:54:00
9:54 AM,30.9,25.0,79,30.44,-9999.0,North,-9999.0,-,N/A,,Unknown,0,2012-12-13 14:54:00
10:54 AM,34.0,25.0,70,30.41,-9999.0,North,-9999.0,-,N/A,,Unknown,0,2012-12-13 15:54:00
11:54 AM,37.0,25.0,62,30.39,-9999.0,North,-9999.0,-,N/A,,Unknown,0,2012-12-13 16:54:00
12:54 PM,36.0,23.0,59,30.37,-9999.0,North,-9999.0,-,N/A,,Unknown,0,2012-12-13 17:54:00
1:54 PM,37.0,21.9,54,30.37,-9999.0,North,-9999.0,-,N/A,,Unknown,0,2012-12-13 18:54:00
2:54 PM,37.0,21.0,52,30.34,-9999.0,North,-9999.0,-,N/A,,Unknown,0,2012-12-13 19:54:00
3:54 PM,35.1,21.0,57,30.34,-9999.0,North,-9999.0,-,N/A,,Unknown,0,2012-12-13 20:54:00
4:54 PM,30.0,21.9,72,30.35,-9999.0,North,-9999.0,-,N/A,,Unknown,0,2012-12-13 21:54:00
6:54 PM,27.0,21.9,81,30.34,-9999.0,North,-9999.0,-,N/A,,Unknown,0,2012-12-13 23:54:00
7:54 PM,26.1,21.9,84,30.32,-9999.0,North,-9999.0,-,N/A,,Unknown,0,2012-12-14 00:54:00
8:54 PM,25.0,21.0,85,30.30,-9999.0,North,-9999.0,-,N/A,,Unknown,0,2012-12-14 01:54:00
9:54 PM,24.1,21.0,88,30.29,-9999.0,North,-9999.0,-,N/A,,Unknown,0,2012-12-14 02:54:00
10:54 PM,21.9,19.9,92,30.28,-9999.0,North,-9999.0,-,N/A,,Unknown,0,2012-12-14 03:54:00
11:54 PM,23.0,19.9,88,30.26,-9999.0,North,-9999.0,-,N/A,,Unknown,0,2012-12-14 04:54:00